Weather History for KNBT - May, 2012

Change the Weather History Date:

Sunday, May 13, 2012

  Actual Average (KMRH) Record (KMRH)
Temperature  
Mean Temperature 72 °F -  
Max Temperature 78 °F 77 °F 88 °F (1964)
Min Temperature 66 °F 60 °F 48 °F (2008)
Cooling Degree Days 6    
Growing Degree Days 22 (Base 50)    
Moisture  
Dew Point 54 °F    
Average Humidity 54    
Maximum Humidity 65    
Minimum Humidity 42    
Precipitation  
Precipitation 0.00 in - - ()
Sea Level Pressure  
Sea Level Pressure 30.26 in    
Wind  
Wind Speed 8 mph (SSE)    
Max Wind Speed 16 mph    
Max Gust Speed 23 mph    
Visibility 10 miles    
Events      
Averages and records for this station are not official NWS values.
T = Trace of Precipitation, MM = Missing Value Source: NWS Daily Summary

Daily Weather History Graph

Daily Weather History Graph

Search for Another Location

Airport or City:

Trip Planner

Search our weather history database for the weather conditions in past years. The results will help you decide how hot, cold, wet, or windy it might be!

Date:

Astronomy

May. 13, 2012 Rise Set
Actual Time 6:03 AM EDT 8:01 PM EDT
Civil Twilight 5:35 AM EDT 8:29 PM EDT
Nautical Twilight 5:01 AM EDT 9:03 PM EDT
Astronomical Twilight 4:25 AM EDT 9:39 PM EDT
Moon 1:51 AM EDT (5/13) 1:35 PM EDT (5/13)
Length of Visible Light 14h 54m
Length of Day
13h 58m
Last Quarter, 42% of the Moon is Illuminated
May 13
Last Quarter
May 20
New
May 28
First Quarter
Jun 4
Full
Jun 11
Last Quarter

Hourly Weather History & Observations

Time (EDT) Temp. Dew Point Humidity Pressure Visibility Wind Dir Wind Speed Gust Speed Precip Events Conditions
12:56 AM 68.0 °F 55.9 °F 65% 30.32 in 10.0 mi South 5.8 mph - N/A   Clear
1:56 AM 68.0 °F 55.9 °F 65% 30.30 in 10.0 mi SSE 6.9 mph - N/A   Clear
2:56 AM 68.0 °F 55.0 °F 63% 30.29 in 10.0 mi SSE 6.9 mph - N/A   Clear
3:56 AM 68.0 °F 55.0 °F 63% 30.29 in 10.0 mi SSE 5.8 mph - 0.00 in   Clear
4:56 AM 66.9 °F 53.1 °F 61% 30.29 in 8.0 mi SSE 6.9 mph - 0.00 in   Clear
5:56 AM 66.9 °F 53.1 °F 61% 30.30 in 10.0 mi SE 6.9 mph - 0.00 in   Clear
6:56 AM 66.9 °F 52.0 °F 59% 30.30 in 10.0 mi SE 6.9 mph - N/A   Partly Cloudy
7:56 AM 72.0 °F 53.1 °F 51% 30.30 in 10.0 mi SE 10.4 mph - N/A   Clear
8:56 AM 73.9 °F 51.1 °F 45% 30.30 in 10.0 mi SE 12.7 mph - N/A   Clear
9:56 AM 73.9 °F 50.0 °F 43% 30.31 in 10.0 mi SSE 11.5 mph - N/A   Clear
10:56 AM 75.9 °F 51.1 °F 42% 30.30 in 10.0 mi SSE 11.5 mph - N/A   Clear
11:56 AM 75.0 °F 52.0 °F 44% 30.30 in 10.0 mi SSE 15.0 mph 20.7 mph N/A   Clear
12:56 PM 75.9 °F 54.0 °F 46% 30.28 in 10.0 mi SSE 11.5 mph 20.7 mph N/A   Clear
1:56 PM 77.0 °F 54.0 °F 45% 30.27 in 10.0 mi SSE 12.7 mph 20.7 mph N/A   Partly Cloudy
2:56 PM 75.9 °F 54.0 °F 46% 30.25 in 10.0 mi SSE 16.1 mph 20.7 mph N/A   Clear
3:56 PM 75.0 °F 55.0 °F 50% 30.23 in 10.0 mi South 13.8 mph 23.0 mph N/A   Clear
4:56 PM 75.9 °F 54.0 °F 46% 30.22 in 10.0 mi South 9.2 mph - N/A   Clear
5:56 PM 75.0 °F 54.0 °F 48% 30.22 in 10.0 mi South 9.2 mph - N/A   Partly Cloudy
6:56 PM 73.9 °F 55.0 °F 52% 30.21 in 10.0 mi South 5.8 mph - N/A   Clear
7:56 PM 72.0 °F 55.0 °F 55% 30.21 in 10.0 mi South 3.5 mph - N/A   Clear
8:56 PM 70.0 °F 55.9 °F 61% 30.22 in 10.0 mi SSE 4.6 mph - N/A   Clear
9:56 PM 71.1 °F 57.0 °F 61% 30.22 in 10.0 mi South 3.5 mph - N/A   Clear
10:56 PM 70.0 °F 55.0 °F 59% 30.21 in 10.0 mi SSE 4.6 mph - N/A   Clear
11:56 PM 70.0 °F 55.0 °F 59% 30.20 in 10.0 mi SSE 5.8 mph - N/A   Clear